Time,TemperatureF,DewpointF,PressureIn,WindDirection,WindDirectionDegrees,WindSpeedMPH,WindSpeedGustMPH,Humidity,HourlyPrecipIn,Conditions,Clouds,dailyrainin,SolarRadiationWatts/m^2,SoftwareType,DateUTC
2013-01-25 00:27:00,21.6,8.0,30.28,ESE,111,10.0,-999.0,56,-99.99,,,0.00,0,weatherlink.com 1.10,2013-01-25 06:27:00,
2013-01-25 00:42:00,21.6,8.0,30.27,SE,127,13.0,-999.0,57,-99.99,,,0.00,0,weatherlink.com 1.10,2013-01-25 06:42:00,
2013-01-25 00:58:00,21.8,8.0,30.26,ESE,123,10.0,-999.0,56,-99.99,,,0.00,0,weatherlink.com 1.10,2013-01-25 06:58:00,
2013-01-25 01:13:00,21.6,8.0,30.25,SE,138,14.0,-999.0,57,-99.99,,,0.00,0,weatherlink.com 1.10,2013-01-25 07:13:00,
2013-01-25 01:28:00,21.6,8.0,30.23,ESE,111,8.0,-999.0,56,-99.99,,,0.00,0,weatherlink.com 1.10,2013-01-25 07:28:00,
2013-01-25 01:43:00,21.8,8.0,30.23,ESE,123,9.0,-999.0,55,-99.99,,,0.00,0,weatherlink.com 1.10,2013-01-25 07:43:00,
2013-01-25 01:58:00,21.8,8.0,30.23,ESE,118,9.0,-999.0,56,-99.99,,,0.00,0,weatherlink.com 1.10,2013-01-25 07:58:00,
2013-01-25 02:13:00,21.8,8.0,30.22,SE,134,12.0,-999.0,55,-99.99,,,0.00,0,weatherlink.com 1.10,2013-01-25 08:13:00,
2013-01-25 02:28:00,21.8,8.0,30.21,ESE,121,8.0,-999.0,55,-99.99,,,0.00,0,weatherlink.com 1.10,2013-01-25 08:28:00,
2013-01-25 02:43:00,21.8,8.0,30.21,SE,134,10.0,-999.0,55,-99.99,,,0.00,0,weatherlink.com 1.10,2013-01-25 08:43:00,
2013-01-25 02:58:00,21.8,8.0,30.20,SE,143,10.0,-999.0,55,-99.99,,,0.00,0,weatherlink.com 1.10,2013-01-25 08:58:00,
2013-01-25 03:13:00,21.8,8.0,30.20,SSE,150,8.0,-999.0,56,-99.99,,,0.00,0,weatherlink.com 1.10,2013-01-25 09:13:00,
2013-01-25 03:28:00,21.3,9.0,30.18,SSE,157,11.0,-999.0,60,-99.99,,,0.00,0,weatherlink.com 1.10,2013-01-25 09:28:00,
2013-01-25 03:43:00,20.2,12.0,30.17,SSE,165,12.0,-999.0,70,-99.99,,,0.00,0,weatherlink.com 1.10,2013-01-25 09:43:00,
2013-01-25 03:58:00,19.7,13.0,30.16,SSE,161,11.0,-999.0,76,-99.99,,,0.00,0,weatherlink.com 1.10,2013-01-25 09:58:00,
2013-01-25 04:13:00,19.5,13.0,30.15,SE,146,13.0,-999.0,77,-99.99,,,0.00,0,weatherlink.com 1.10,2013-01-25 10:13:00,
2013-01-25 04:28:00,19.7,14.0,30.14,SSE,147,6.0,-999.0,77,-99.99,,,0.00,0,weatherlink.com 1.10,2013-01-25 10:28:00,
2013-01-25 04:43:00,19.7,13.0,30.16,SE,143,3.0,-999.0,76,-99.99,,,0.00,0,weatherlink.com 1.10,2013-01-25 10:43:00,
2013-01-25 04:58:00,19.4,14.0,30.16,SE,146,2.0,-999.0,79,-99.99,,,0.00,0,weatherlink.com 1.10,2013-01-25 10:58:00,
2013-01-25 05:13:00,19.2,14.0,30.16,SE,146,0.0,-999.0,81,-99.99,,,0.00,0,weatherlink.com 1.10,2013-01-25 11:13:00,
2013-01-25 05:28:00,19.1,15.0,30.16,SE,145,0.0,-999.0,82,-99.99,,,0.00,0,weatherlink.com 1.10,2013-01-25 11:28:00,
2013-01-25 05:43:00,19.1,15.0,30.15,SE,145,2.0,-999.0,83,-99.99,,,0.00,0,weatherlink.com 1.10,2013-01-25 11:43:00,
2013-01-25 05:58:00,19.1,15.0,30.14,SE,145,3.0,-999.0,83,-99.99,,,0.00,0,weatherlink.com 1.10,2013-01-25 11:58:00,
2013-01-25 06:13:00,19.2,15.0,30.14,SE,145,4.0,-999.0,83,-99.99,,,0.00,0,weatherlink.com 1.10,2013-01-25 12:13:00,
2013-01-25 06:28:00,19.2,15.0,30.12,SE,144,4.0,-999.0,83,-99.99,,,0.00,0,weatherlink.com 1.10,2013-01-25 12:28:00,
2013-01-25 06:43:00,19.5,15.0,30.12,SSE,154,3.0,-999.0,82,-99.99,,,0.00,0,weatherlink.com 1.10,2013-01-25 12:43:00,
2013-01-25 06:58:00,20.0,15.0,30.12,SSE,164,4.0,-999.0,79,-99.99,,,0.00,0,weatherlink.com 1.10,2013-01-25 12:58:00,
2013-01-25 07:13:00,20.2,15.0,30.12,South,186,4.0,-999.0,79,-99.99,,,0.00,0,weatherlink.com 1.10,2013-01-25 13:13:00,
2013-01-25 07:28:00,20.3,15.0,30.12,South,186,4.0,-999.0,80,-99.99,,,0.00,5,weatherlink.com 1.10,2013-01-25 13:28:00,
2013-01-25 07:43:00,20.5,15.0,30.11,South,184,6.0,-999.0,79,-99.99,,,0.00,11,weatherlink.com 1.10,2013-01-25 13:43:00,
2013-01-25 07:58:00,21.0,15.0,30.11,South,190,7.0,-999.0,79,-99.99,,,0.00,23,weatherlink.com 1.10,2013-01-25 13:58:00,
2013-01-25 08:13:00,21.6,15.0,30.10,SW,215,11.0,-999.0,77,-99.99,,,0.00,39,weatherlink.com 1.10,2013-01-25 14:13:00,
2013-01-25 08:28:00,22.2,15.0,30.10,SW,219,11.0,-999.0,75,-99.99,,,0.00,53,weatherlink.com 1.10,2013-01-25 14:28:00,
2013-01-25 08:43:00,22.9,16.0,30.09,SW,234,15.0,-999.0,75,-99.99,,,0.00,76,weatherlink.com 1.10,2013-01-25 14:43:00,
2013-01-25 08:58:00,23.2,15.0,30.09,SW,231,15.0,-999.0,72,-99.99,,,0.00,102,weatherlink.com 1.10,2013-01-25 14:58:00,
2013-01-25 09:13:00,23.5,15.0,30.09,WSW,256,17.0,-999.0,71,-99.99,,,0.00,116,weatherlink.com 1.10,2013-01-25 15:13:00,
2013-01-25 09:28:00,23.9,16.0,30.09,WNW,288,13.0,-999.0,71,-99.99,,,0.00,153,weatherlink.com 1.10,2013-01-25 15:28:00,
2013-01-25 09:43:00,24.4,16.0,30.09,West,275,12.0,-999.0,71,-99.99,,,0.00,185,weatherlink.com 1.10,2013-01-25 15:43:00,
2013-01-25 09:59:00,24.7,16.0,30.08,West,272,11.0,-999.0,70,-99.99,,,0.00,227,weatherlink.com 1.10,2013-01-25 15:59:00,
2013-01-25 10:14:00,25.6,17.0,30.08,West,262,13.0,-999.0,70,-99.99,,,0.00,420,weatherlink.com 1.10,2013-01-25 16:14:00,
2013-01-25 10:29:00,26.4,17.0,30.08,West,273,14.0,-999.0,68,-99.99,,,0.00,506,weatherlink.com 1.10,2013-01-25 16:29:00,
2013-01-25 10:44:00,26.0,17.0,30.07,West,279,17.0,-999.0,68,-99.99,,,0.00,176,weatherlink.com 1.10,2013-01-25 16:44:00,
2013-01-25 10:59:00,27.3,17.0,30.07,West,269,15.0,-999.0,66,-99.99,,,0.00,489,weatherlink.com 1.10,2013-01-25 16:59:00,
2013-01-25 11:14:00,27.9,18.0,30.07,West,274,14.0,-999.0,66,-99.99,,,0.00,555,weatherlink.com 1.10,2013-01-25 17:14:00,
2013-01-25 11:29:00,28.4,17.0,30.05,WNW,287,18.0,-999.0,62,-99.99,,,0.00,489,weatherlink.com 1.10,2013-01-25 17:29:00,
2013-01-25 11:44:00,29.3,17.0,30.04,West,281,15.0,-999.0,60,-99.99,,,0.00,494,weatherlink.com 1.10,2013-01-25 17:44:00,
2013-01-25 11:59:00,30.3,17.0,30.03,West,267,14.0,-999.0,59,-99.99,,,0.00,497,weatherlink.com 1.10,2013-01-25 17:59:00,
2013-01-25 12:14:00,30.9,17.0,30.02,West,277,22.0,-999.0,57,-99.99,,,0.00,497,weatherlink.com 1.10,2013-01-25 18:14:00,
2013-01-25 12:29:00,31.9,16.0,30.01,West,273,17.0,-999.0,53,-99.99,,,0.00,497,weatherlink.com 1.10,2013-01-25 18:29:00,
2013-01-25 12:44:00,32.2,16.0,30.00,West,278,15.0,-999.0,51,-99.99,,,0.00,490,weatherlink.com 1.10,2013-01-25 18:44:00,
2013-01-25 12:59:00,32.9,16.0,29.99,West,270,16.0,-999.0,51,-99.99,,,0.00,480,weatherlink.com 1.10,2013-01-25 18:59:00,
2013-01-25 13:14:00,33.8,17.0,29.99,West,279,22.0,-999.0,50,-99.99,,,0.00,466,weatherlink.com 1.10,2013-01-25 19:14:00,
2013-01-25 13:29:00,34.3,16.0,29.99,WSW,256,25.0,-999.0,47,-99.99,,,0.00,452,weatherlink.com 1.10,2013-01-25 19:29:00,
2013-01-25 13:44:00,35.0,16.0,29.98,West,265,26.0,-999.0,47,-99.99,,,0.00,429,weatherlink.com 1.10,2013-01-25 19:44:00,
2013-01-25 13:59:00,35.8,16.0,29.98,WNW,288,28.0,-999.0,45,-99.99,,,0.00,325,weatherlink.com 1.10,2013-01-25 19:59:00,
2013-01-25 14:14:00,36.0,16.0,29.98,West,270,23.0,-999.0,45,-99.99,,,0.00,322,weatherlink.com 1.10,2013-01-25 20:14:00,
2013-01-25 14:29:00,36.5,17.0,29.98,WNW,284,24.0,-999.0,45,-99.99,,,0.00,274,weatherlink.com 1.10,2013-01-25 20:29:00,
2013-01-25 14:44:00,36.8,17.0,29.98,West,269,23.0,-999.0,44,-99.99,,,0.00,149,weatherlink.com 1.10,2013-01-25 20:44:00,
2013-01-25 14:59:00,37.5,18.0,29.98,WNW,292,19.0,-999.0,45,-99.99,,,0.00,236,weatherlink.com 1.10,2013-01-25 20:59:00,
2013-01-25 15:14:00,36.9,17.0,29.98,WNW,285,27.0,-999.0,44,-99.99,,,0.00,207,weatherlink.com 1.10,2013-01-25 21:14:00,
2013-01-25 15:29:00,36.9,17.0,29.99,WNW,288,22.0,-999.0,45,-99.99,,,0.00,151,weatherlink.com 1.10,2013-01-25 21:29:00,
2013-01-25 15:44:00,36.5,18.0,29.99,WNW,298,20.0,-999.0,47,-99.99,,,0.00,158,weatherlink.com 1.10,2013-01-25 21:44:00,
2013-01-25 15:59:00,35.9,17.0,29.99,WNW,284,23.0,-999.0,47,-99.99,,,0.00,116,weatherlink.com 1.10,2013-01-25 21:59:00,
2013-01-25 16:14:00,35.5,17.0,30.00,WNW,291,18.0,-999.0,48,-99.99,,,0.00,56,weatherlink.com 1.10,2013-01-25 22:14:00,
2013-01-25 16:29:00,34.3,18.0,30.01,WNW,294,23.0,-999.0,52,-99.99,,,0.00,33,weatherlink.com 1.10,2013-01-25 22:29:00,
2013-01-25 16:44:00,33.7,19.0,30.02,NW,305,16.0,-999.0,55,-99.99,,,0.00,23,weatherlink.com 1.10,2013-01-25 22:44:00,
2013-01-25 16:59:00,32.5,20.0,30.02,WNW,292,17.0,-999.0,60,-99.99,,,0.00,11,weatherlink.com 1.10,2013-01-25 22:59:00,
2013-01-25 17:14:00,31.5,19.0,30.03,WNW,302,20.0,-999.0,60,-99.99,,,0.00,0,weatherlink.com 1.10,2013-01-25 23:14:00,
2013-01-25 17:29:00,30.7,19.0,30.04,WNW,294,17.0,-999.0,61,-99.99,,,0.00,0,weatherlink.com 1.10,2013-01-25 23:29:00,
2013-01-25 17:44:00,30.1,19.0,30.05,WNW,296,8.0,-999.0,63,-99.99,,,0.00,0,weatherlink.com 1.10,2013-01-25 23:44:00,
2013-01-25 17:59:00,29.4,19.0,30.05,WNW,302,11.0,-999.0,64,-99.99,,,0.00,0,weatherlink.com 1.10,2013-01-25 23:59:00,
2013-01-25 18:14:00,28.5,18.0,30.05,WNW,298,4.0,-999.0,66,-99.99,,,0.00,0,weatherlink.com 1.10,2013-01-26 00:14:00,
2013-01-25 18:29:00,27.6,18.0,30.07,WNW,293,9.0,-999.0,67,-99.99,,,0.00,0,weatherlink.com 1.10,2013-01-26 00:29:00,
2013-01-25 18:44:00,28.7,19.0,30.07,WNW,294,11.0,-999.0,67,-99.99,,,0.00,0,weatherlink.com 1.10,2013-01-26 00:44:00,
2013-01-25 18:59:00,29.3,18.0,30.08,NW,305,12.0,-999.0,64,-99.99,,,0.00,0,weatherlink.com 1.10,2013-01-26 00:59:00,
2013-01-25 19:14:00,28.7,17.0,30.08,NW,306,17.0,-999.0,61,-99.99,,,0.00,0,weatherlink.com 1.10,2013-01-26 01:14:00,
2013-01-25 19:29:00,27.8,15.0,30.08,NW,312,12.0,-999.0,60,-99.99,,,0.00,0,weatherlink.com 1.10,2013-01-26 01:29:00,
2013-01-25 19:44:00,26.7,13.0,30.10,NW,305,15.0,-999.0,56,-99.99,,,0.00,0,weatherlink.com 1.10,2013-01-26 01:44:00,
2013-01-25 19:59:00,25.3,10.0,30.11,NW,304,15.0,-999.0,53,-99.99,,,0.00,0,weatherlink.com 1.10,2013-01-26 01:59:00,
2013-01-25 20:14:00,24.1,8.0,30.12,WNW,302,13.0,-999.0,50,-99.99,,,0.00,0,weatherlink.com 1.10,2013-01-26 02:14:00,
2013-01-25 20:29:00,23.3,7.0,30.12,WNW,283,18.0,-999.0,49,-99.99,,,0.00,0,weatherlink.com 1.10,2013-01-26 02:29:00,
2013-01-25 20:44:00,22.4,6.0,30.12,NNW,327,12.0,-999.0,50,-99.99,,,0.00,0,weatherlink.com 1.10,2013-01-26 02:44:00,
2013-01-25 20:59:00,21.6,6.0,30.13,NW,319,17.0,-999.0,52,-99.99,,,0.00,0,weatherlink.com 1.10,2013-01-26 02:59:00,
2013-01-25 21:14:00,21.1,6.0,30.14,NW,310,15.0,-999.0,52,-99.99,,,0.00,0,weatherlink.com 1.10,2013-01-26 03:14:00,
2013-01-25 21:29:00,20.6,6.0,30.15,NW,307,12.0,-999.0,53,-99.99,,,0.00,0,weatherlink.com 1.10,2013-01-26 03:29:00,
2013-01-25 21:44:00,20.3,6.0,30.16,NW,309,12.0,-999.0,54,-99.99,,,0.00,0,weatherlink.com 1.10,2013-01-26 03:44:00,
2013-01-25 21:59:00,19.7,6.0,30.17,NW,321,11.0,-999.0,55,-99.99,,,0.00,0,weatherlink.com 1.10,2013-01-26 03:59:00,
2013-01-25 22:14:00,19.4,6.0,30.19,NW,304,11.0,-999.0,55,-99.99,,,0.00,0,weatherlink.com 1.10,2013-01-26 04:14:00,
2013-01-25 22:30:00,18.9,6.0,30.19,NW,306,14.0,-999.0,57,-99.99,,,0.00,0,weatherlink.com 1.10,2013-01-26 04:30:00,
2013-01-25 22:45:00,18.4,6.0,30.20,NW,307,14.0,-999.0,58,-99.99,,,0.00,0,weatherlink.com 1.10,2013-01-26 04:45:00,
2013-01-25 23:00:00,18.0,6.0,30.21,WNW,302,9.0,-999.0,59,-99.99,,,0.00,0,weatherlink.com 1.10,2013-01-26 05:00:00,
2013-01-25 23:30:00,17.3,6.0,30.22,NW,306,9.0,-999.0,61,-99.99,,,0.00,0,weatherlink.com 1.10,2013-01-26 05:30:00,
2013-01-25 23:45:00,16.9,6.0,30.23,WNW,302,9.0,-999.0,62,-99.99,,,0.00,0,weatherlink.com 1.10,2013-01-26 05:45:00,